Tracking 18951 objects as of 21-Jan-2018
HD Live streaming from Space Station
objects crossing your sky now

FENGYUN 1C DEB

Track FENGYUN 1C DEB now!
10-day predictions


NORAD ID: 30835
Int'l Code: 1999-025AVV
Perigee: 464.2 km
Apogee: 651.3 km
Inclination: 98.8 °
Period: 95.7 minutes
Semi major axis: 6928 km
RCS: 0.0137 m2 (small)
Launch date: May 10, 1999
Source: People's Republic of China (PRC)
Launch site: Taiyaun Space Center, China (TSC)

Note: This is SATELLITE DEBRIS
aabbcc
Your satellite tracking list
Your tracking list is empty




NASA's NSSDC Master Catalog

Two Line Element Set (TLE):
1 30835U 99025AVV 18020.91114767 +.00002617 +00000-0 +15454-3 0  9999
2 30835 098.7682 053.0992 0135070 195.7598 163.9403 15.05291512588153
Source of the keplerian elements: AFSPC